FW1161 Weather Reports


Display with metric or nautical units.
time (UTC)temp
F
wind
direction
speed
MPH
gust
MPH
rain 1hr
in
rain 24hr
in
rain mn
in
humidity
%
barometer
mb
20260509214555 56 296 0.0 4.0 0.09 0.09 0.09 92 1002.5
20260509213008 57 295 0.0 2.0 0.09 0.09 0.09 91 1002.8
20260509211610 57 295 0.0 0.0 0.09 0.09 0.09 91 1002.8
20260509210045 56 295 0.0 3.0 0.08 0.08 0.08 89 1002.6
20260509204607 57 295 0.0 1.0 0.00 0.00 0.00 87 1002.5
20260509203025 58 306 2.0 5.0 0.00 0.00 0.00 86 1002.6
20260509201603 58 296 1.0 6.0 0.00 0.00 0.00 87 1002.4
20260509200019 58 290 1.0 11.0 0.00 0.00 0.00 87 1002.7
20260509194550 58 317 1.0 7.0 0.00 0.00 0.00 85 1002.6
20260509193010 58 296 3.0 7.0 0.00 0.00 0.00 85 1003.0
20260509191518 58 7 1.0 4.0 0.00 0.00 0.00 86 1003.5
20260509190033 58 303 3.0 6.0 0.00 0.00 0.00 84 1003.3
20260509184601 58 289 0.0 5.0 0.00 0.00 0.00 84 1003.5
20260509183024 59 294 3.0 8.0 0.00 0.00 0.00 82 1003.5
20260509181654 60 311 2.0 6.0 0.00 0.00 0.00 81 1003.6
20260509180032 60 344 1.0 5.0 0.00 0.00 0.00 78 1003.6
20260509174558 60 292 3.0 8.0 0.00 0.00 0.00 77 1003.4
20260509173025 60 295 3.0 13.0 0.00 0.00 0.00 76 1003.3
20260509171536 60 314 2.0 7.0 0.00 0.00 0.00 75 1003.6
20260509170006 61 311 4.0 10.0 0.00 0.00 0.00 78 1003.6
20260509164608 61 267 1.0 8.0 0.00 0.00 0.00 77 1003.6
20260509163019 61 293 3.0 5.0 0.00 0.00 0.00 76 1003.6
20260509161538 62 249 1.0 9.0 0.00 0.00 0.00 71 1003.8
20260509160012 63 277 4.0 11.0 0.00 0.00 0.00 66 1004.0
20260509154527 63 308 3.0 6.0 0.00 0.00 0.00 69 1004.2
20260509153050 63 298 2.0 9.0 0.00 0.00 0.00 71 1004.2
20260509151519 63 274 2.0 7.0 0.00 0.00 0.00 69 1004.3
20260509150050 63 294 2.0 4.0 0.00 0.00 0.00 70 1004.2
20260509144606 63 319 3.0 9.0 0.00 0.00 0.00 69 1004.1
20260509143015 63 275 1.0 4.0 0.00 0.00 0.00 69 1004.0
20260509141544 63 294 0.0 4.0 0.00 0.00 0.00 72 1003.9
20260509140013 63 270 0.0 3.0 0.00 0.00 0.00 74 1003.7
20260509134532 61 272 1.0 6.0 0.00 0.00 0.00 75 1003.9
20260509133012 61 254 1.0 3.0 0.00 0.00 0.00 75 1003.9
20260509131527 61 280 1.0 4.0 0.00 0.00 0.00 76 1003.9
20260509130058 60 249 0.0 5.0 0.00 0.00 0.00 77 1004.1
20260509124511 60 287 0.0 3.0 0.00 0.00 0.00 79 1004.2
20260509123038 59 291 0.0 0.0 0.00 0.00 0.00 80 1004.1
20260509121507 57 291 0.0 0.0 0.00 0.00 0.00 81 1004.1
20260509120033 57 291 0.0 0.0 0.00 0.00 0.00 82 1004.1
20260509114544 56 291 0.0 0.0 0.00 0.00 0.00 81 1004.1
20260509113002 56 291 0.0 1.0 0.00 0.00 0.00 82 1004.1
20260509111532 56 291 0.0 0.0 0.00 0.00 0.00 82 1004.2
20260509110059 56 291 0.0 0.0 0.00 0.00 0.00 81 1004.1
20260509104521 56 291 0.0 0.0 0.00 0.00 0.00 80 1004.2
20260509103043 55 291 0.0 0.0 0.00 0.00 0.00 80 1003.9
20260509101510 55 291 0.0 0.0 0.00 0.00 0.00 79 1004.0
20260509100041 55 291 0.0 0.0 0.00 0.00 0.00 79 1004.0
20260509094506 55 291 0.0 0.0 0.00 0.00 0.00 77 1003.8
20260509093018 55 291 0.0 0.0 0.00 0.00 0.00 76 1004.0
20260509091559 55 291 0.0 0.0 0.00 0.00 0.00 76 1003.9
20260509090013 55 291 0.0 0.0 0.00 0.00 0.00 74 1004.0
20260509084537 55 291 0.0 0.0 0.00 0.00 0.00 74 1004.1
20260509083050 55 291 0.0 0.0 0.00 0.00 0.00 74 1004.1
20260509081516 55 291 0.0 0.0 0.00 0.00 0.00 73 1004.0
20260509080041 55 291 0.0 0.0 0.00 0.00 0.00 73 1004.1
20260509074507 55 291 0.0 0.0 0.00 0.00 0.00 72 1004.3
20260509073030 55 291 0.0 0.0 0.00 0.00 0.00 69 1004.3
20260509071603 56 291 0.0 0.0 0.00 0.00 0.00 68 1004.3
20260509070022 57 291 0.0 0.0 0.00 0.00 0.00 68 1004.5
20260509064542 56 291 0.0 0.0 0.00 0.00 0.00 68 1004.5
20260509063058 56 291 0.0 0.0 0.00 0.00 0.00 67 1004.6
20260509061516 57 291 0.0 0.0 0.00 0.00 0.00 65 1004.7
20260509060104 57 291 0.0 0.0 0.00 0.00 0.00 64 1004.8
20260509054503 58 291 0.0 0.0 0.00 0.00 0.00 64 1004.9
20260509053031 58 291 0.0 0.0 0.00 0.00 0.00 64 1005.1
20260509051558 58 291 0.0 0.0 0.00 0.00 0.00 63 1005.3
20260509050030 59 291 0.0 0.0 0.00 0.00 0.00 63 1005.4
20260509044553 59 291 0.0 0.0 0.00 0.00 0.00 64 1005.2
20260509043019 59 291 0.0 0.0 0.00 0.00 0.00 61 1005.2
20260509041535 60 291 0.0 0.0 0.00 0.00 0.00 59 1005.1
20260509034510 61 291 2.0 3.0 0.00 0.00 0.00 56 1005.3
20260509033045 61 293 0.0 0.0 0.00 0.00 0.00 55 1005.3
20260509031507 61 293 0.0 0.0 0.00 0.00 0.00 54 1005.0
20260509024531 62 292 0.0 2.0 0.00 0.00 0.00 52 1005.1
20260509023106 62 292 0.0 0.0 0.00 0.00 0.00 52 1005.2
20260509021527 62 292 0.0 0.0 0.00 0.00 0.00 50 1005.1
20260509020054 62 293 0.0 3.0 0.00 0.00 0.00 49 1005.0
20260509014513 61 293 0.0 2.0 0.00 0.00 0.00 51 1004.9
20260509013038 60 293 0.0 0.0 0.00 0.00 0.00 54 1004.8
20260509011602 60 292 0.0 0.0 0.00 0.00 0.00 53 1004.7
20260509010029 61 293 0.0 0.0 0.00 0.00 0.00 53 1004.5
20260509004543 61 292 0.0 0.0 0.00 0.00 0.00 53 1004.0
20260509003107 61 293 0.0 0.0 0.00 0.00 0.00 52 1003.7
20260509001531 62 293 0.0 0.0 0.00 0.00 0.00 50 1003.7
20260509000104 62 292 0.0 0.0 0.00 0.00 0.00 48 1003.7
20260508234510 63 292 0.0 0.0 0.00 0.00 0.00 46 1003.6
20260508233030 64 292 0.0 1.0 0.00 0.00 0.00 44 1003.5
20260508231554 64 293 0.0 0.0 0.00 0.00 0.00 44 1003.3
20260508230010 64 292 1.0 4.0 0.00 0.00 0.00 43 1003.3
20260508224533 64 292 1.0 5.0 0.00 0.00 0.00 43 1003.1
20260508223047 64 294 1.0 6.0 0.00 0.00 0.00 42 1003.3
20260508221513 65 281 3.0 8.0 0.00 0.00 0.00 41 1003.2
20260508220040 65 333 2.0 13.0 0.00 0.00 0.00 40 1003.3